Location: Siratepeler Tepesi
(39.1042°N, 32.0781°E)
Time: 00:46:45
(UTC+00:00)

Meteor 1-22 Rocket - Pass Details

Date: 11 April 2026
Orbit: 786 x 939 km, 81.2° (Epoch: 11 May)

Event Time Altitude Azimuth Distance (km) Brightness Sun altitude
Rises 17:11:29 0° 191° (S) 3,343 7.2 -9.5°
Reaches altitude 10° 17:13:50 10° 193° (SSW) 2,435 6.5 -9.9°
Maximum altitude 17:19:22 78° 279° (W) 882 4.4 -11.0°
Drops below altitude 10° 17:25:11 10° 6° (N) 2,556 6.9 -12.0°
Sets 17:27:42 0° 8° (N) 3,522 7.6 -12.5°
